Regional Weather Roundup
Issued by NWS

Home | Current Version | Previous Version | Text Only | Print | Product List | Glossary Off
Versions: 1 2 3 4 5 6 7 8 9 10 11 12 13 14 15 16 17 18 19 20 21 22 23 24 25 26 27

000
ASUS45 KCYS 260810
RWRWY

WYOMING REGIONAL WEATHER ROUNDUP
NATIONAL WEATHER SERVICE CHEYENNE WY
200 AM MDT WED APR 26 2017

NOTE:  "FAIR" INDICATES FEW OR NO CLOUDS BELOW 12,000 FEET
WITH NO SIGNIFICANT WEATHER AND/OR OBSTRUCTIONS TO VISIBILITY.

WYZ001-260900-
YELLOWSTONE NATIONAL PARK

CITY           SKY/WX    TMP DP  RH WIND       PRES   REMARKS
LK YELLOWSTONE   N/A     28  28 100 CALM      29.85
W YELLOWSTONE  NOT AVBL

$$
WYZ002>013-054>058-071-098>099-260900-
NORTHERN WYOMING

CITY           SKY/WX    TMP DP  RH WIND       PRES   REMARKS
JACKSON        CLOUDY    32  30  93 SW6       29.87S WCI  26
CODY           FAIR      33  31  92 CALM      29.81F
GREYBULL       CLOUDY    36  29  75 SE3       29.84S
WORLAND        FAIR      34  33  96 SE8       29.83F WCI  27
SHERIDAN       CLOUDY    31  26  82 E8        29.86F WCI  23
BUFFALO        NOT AVBL
GILLETTE       CLOUDY    27  27 100 W5        29.86F WCI  22
HULETT         CLOUDY    27  23  86 CALM      29.88S
NEWCASTLE      FAIR      27  21  80 W8        29.86F WCI  18

$$
WYZ014>020-022>026-101>103-260900-
CENTRAL WYOMING

CITY           SKY/WX    TMP DP  RH WIND       PRES   REMARKS
BIG PINEY      CLOUDY    31  29  92 CALM      29.89F
PINEDALE       CLOUDY    32  32 100 NW5       29.89F WCI  27
DUBOIS         SNOW      30  30 100 N3        29.84F VSB 1/2
LANDER         FAIR      33  24  69 SW9       29.83F WCI  25
RIVERTON       FAIR      30  29  96 CALM      29.84F
CASPER         FAIR      25  22  88 E3        29.86F
DOUGLAS        MOCLDY    29  25  85 NW12      29.87F WCI  19

$$
WYZ021-027>030-104>119-260900-
SOUTHERN WYOMING

CITY           SKY/WX    TMP DP  RH WIND       PRES   REMARKS
EVANSTON       FAIR      30  28  92 SW9       29.93F WCI  22
KEMMERER         N/A     32  30  93 SW7       29.92F WCI  26
FORT BRIDGER   FAIR      33  30  88 W9        29.95F WCI  26
ROCK SPRINGS   CLOUDY    34  31  88 SW9       29.89F WCI  27
DIXON            N/A     28  26  94 CALM      29.93R
RAWLINS        FAIR      27  23  85 W3        29.87F
SARATOGA       FAIR      28  28 100 E10       29.88F WCI  19
LARAMIE        CLOUDY    28  23  81 N14       29.82S WCI  17
CHEYENNE       FAIR      27  23  85 N8        29.81F WCI  19
TORRINGTON     CLOUDY    32  26  78 N8        29.84F WCI  25
PINE BLUFFS    CLOUDY    30  27  86 NW9       29.82F WCI  22

$$




USA.gov is the U.S. government's official web portal to all federal, state and local government web resources and services.